SCP
0 0 0 0 0 0 0 0 0 0 0 0 0 0 0 0 0 0 0 0 0 0
0 0 0 0 0 0 0 0 0 0 0 0 0 0 0 0 0 0 0 0 0 0
0 0 0 0 0 0 0 0 0 0 0 0 0 0 0 0 0 0 0 0 0 0
0 0 0 0 0 0 0 0 0 0 0 0 0 0 0 0 0 0 0 0 0 0
0 0 0 0 0 0 0 0 0 0 0 0 0 0 0 0 0 0 0 0 0 0
0 0 0 0 0 0 0 0 0 0 0 0 0 0 0 0 0 0 0 0 0 0
0 0 0 0 0 0 0 0 0 0 0 0 0 0 0 0 0 0 0 0 0 0
0 0 0 0 0 0 0 0 0 0 0 0 0 0 0 0 0 0 0 0 0 0
0 0 0 0 0 0 0 0 0 0 0 0 0 0 0 0 0 0 0 0 0 0
0 0 0 0 0 0 0 0 0 0 0 0 0 0 0 0 0 0 0 0 0 0
0 0 0 0 0 0 0 0 0 0 0 0 0 0 0 0 0 0 0 0 0 -0
0 0 0 0 0 0 0 0 0 0 0 0 0 0 0 0 0 0 0 0 -0 -0
0 0 0 0 0 0 0 0 0 0 0 0 0 0 0 0 0 0 0 0 0 -0
0 0 0 0 0 0 0 0 0 0 0 0 0 0 0 0 0 0 0 -0 0 0
Wind_Speed_500mb
59 61 61 62 62 62 63 60 52 49 51 52 54 56 58 60 58 52 48 38 38 44
59 61 62 62 62 63 62 58 52 50 52 53 55 58 59 61 59 50 39 39 47 51
62 62 63 64 64 65 62 57 52 51 53 56 57 60 61 61 56 45 35 44 48 53
63 63 64 65 65 65 62 58 53 52 55 58 59 62 64 60 51 38 41 45 51 58
64 66 67 68 67 66 64 59 55 54 56 59 60 62 63 61 44 40 52 54 54 62
65 68 68 70 70 67 65 59 54 54 57 59 60 62 61 56 48 48 57 58 58 60
66 69 71 70 69 67 63 59 56 56 57 57 58 57 54 47 54 59 60 59 59 56
66 68 69 68 66 63 60 58 57 59 58 56 54 51 51 56 60 58 57 59 55 55
64 65 66 65 63 61 59 58 57 57 57 55 50 49 48 53 54 53 54 56 51 56
62 65 65 63 61 60 59 56 54 52 52 51 50 47 49 48 47 51 51 52 60 59
62 64 64 62 59 57 54 53 53 51 49 48 45 45 46 44 49 47 53 51 50 56
64 64 64 62 60 56 57 52 49 47 46 45 44 46 42 48 46 53 49 54 52 47
61 61 63 61 61 58 51 49 45 45 41 45 49 49 43 45 57 45 66 44 45 59
59 57 59 61 57 55 53 49 47 48 49 55 54 44 42 46 48 59 30 59 66 61
Wind_Direction_500mb
324 324 325 325 326 328 329 328 325 324 323 326 330 330 329 326 325 322 318 322 324 321
325 326 328 328 327 328 327 324 318 318 320 325 329 327 326 326 324 322 318 317 322 318
328 330 329 328 328 326 324 320 315 316 319 322 325 324 324 325 327 320 316 316 318 322
330 329 328 326 326 325 323 320 315 316 317 319 321 321 321 323 326 319 317 324 323 324
329 328 327 327 327 326 325 321 316 316 316 317 318 318 318 319 322 322 327 325 324 328
329 327 328 328 328 328 324 322 319 316 316 318 317 316 317 315 328 325 324 325 320 318
327 328 329 329 329 327 325 324 321 319 318 320 318 318 316 321 325 323 321 316 317 317
330 329 328 328 330 327 326 325 323 321 321 322 325 324 323 320 318 316 313 318 313 312
330 330 331 331 331 329 329 327 326 324 325 330 331 323 320 318 316 317 320 316 321 321
335 335 335 335 334 333 332 330 329 330 333 333 338 326 324 323 321 324 324 324 326 326
341 340 337 338 338 336 336 337 339 337 339 340 343 329 330 328 328 330 329 329 328 328
344 341 341 342 340 343 344 344 341 344 345 346 351 342 334 333 330 334 328 327 336 332
344 344 343 344 344 347 342 344 346 349 352 355 358 352 340 338 335 329 327 339 331 325
348 347 344 348 346 346 346 350 353 353 0 1 359 352 343 340 338 328 345 335 333 333
Wind_Speed_850mb
59 61 61 62 62 62 63 60 52 49 51 52 54 56 58 60 58 52 48 38 38 44
59 61 62 62 62 63 62 58 52 50 52 53 55 58 59 61 59 50 39 39 47 51
62 62 63 64 64 65 62 57 52 51 53 56 57 60 61 61 56 45 35 44 48 53
63 63 64 65 65 65 62 58 53 52 55 58 59 62 64 60 51 38 41 45 51 58
64 66 67 68 67 66 64 59 55 54 56 59 60 62 63 61 44 40 52 54 54 62
65 68 68 70 70 67 65 59 54 54 57 59 60 62 61 56 48 48 57 58 58 60
66 69 71 70 69 67 63 59 56 56 57 57 58 57 54 47 54 59 60 59 59 56
66 68 69 68 66 63 60 58 57 59 58 56 54 51 51 56 60 58 57 59 55 55
64 65 66 65 63 61 59 58 57 57 57 55 50 49 48 53 54 53 54 56 51 56
62 65 65 63 61 60 59 56 54 52 52 51 50 47 49 48 47 51 51 52 60 59
62 64 64 62 59 57 54 53 53 51 49 48 45 45 46 44 49 47 53 51 50 56
64 64 64 62 60 56 57 52 49 47 46 45 44 46 42 48 46 53 49 54 52 47
61 61 63 61 61 58 51 49 45 45 41 45 49 49 43 45 57 45 66 44 45 59
59 57 59 61 57 55 53 49 47 48 49 55 54 44 42 46 48 59 30 59 66 61
Wind_Direction_850mb
324 324 325 325 326 328 329 328 325 324 323 326 330 330 329 326 325 322 318 322 324 321
325 326 328 328 327 328 327 324 318 318 320 325 329 327 326 326 324 322 318 317 322 318
328 330 329 328 328 326 324 320 315 316 319 322 325 324 324 325 327 320 316 316 318 322
330 329 328 326 326 325 323 320 315 316 317 319 321 321 321 323 326 319 317 324 323 324
329 328 327 327 327 326 325 321 316 316 316 317 318 318 318 319 322 322 327 325 324 328
329 327 328 328 328 328 324 322 319 316 316 318 317 316 317 315 328 325 324 325 320 318
327 328 329 329 329 327 325 324 321 319 318 320 318 318 316 321 325 323 321 316 317 317
330 329 328 328 330 327 326 325 323 321 321 322 325 324 323 320 318 316 313 318 313 312
330 330 331 331 331 329 329 327 326 324 325 330 331 323 320 318 316 317 320 316 321 321
335 335 335 335 334 333 332 330 329 330 333 333 338 326 324 323 321 324 324 324 326 326
341 340 337 338 338 336 336 337 339 337 339 340 343 329 330 328 328 330 329 329 328 328
344 341 341 342 340 343 344 344 341 344 345 346 351 342 334 333 330 334 328 327 336 332
344 344 343 344 344 347 342 344 346 349 352 355 358 352 340 338 335 329 327 339 331 325
348 347 344 348 346 346 346 350 353 353 0 1 359 352 343 340 338 328 345 335 333 333